Hourly Weather Roundup
Issued by NWS Central Illinois

Home | Current Version | Previous Version | Text Only | Print | Product List | Glossary On
Versions: 1 2 3 4 5 6 7 8 9 10 11 12 13 14 15 16 17 18 19 20 21 22 23 24 25 26 27 28 29 30 31 32 33 34 35 36 37 38 39 40 41 42 43 44 45 46 47 48 49 50
000
NZUS43 KILX 121810
HWRILX

AREA WEATHER ROUNDUP
NATIONAL WEATHER SERVICE, LINCOLN IL
1200 PM CST FRI FEB 12 2016


CITY           SKY/WX    TMP DP  RH WIND       PRES   REMARKS
BLOOMINGTON    LGT SNOW  24  20  85 NW15G24   30.22R FOG     WCI  11
6HR MIN TEMP:  21; 6HR MAX TEMP:  24; 6HR PCP: TRACE;

CHAMPAIGN      CLOUDY    25  20  81 W20       30.20F WCI  11
6HR MIN TEMP:  20; 6HR MAX TEMP:  26; 6HR PCP: TRACE;

DANVILLE       FLURRIES  25  19  77 W10       30.15F WCI  15
6HR MIN TEMP:  19; 6HR MAX TEMP:  25;

DECATUR        CLOUDY    25  19  78 NW15      30.24S WCI  13
6HR MIN TEMP:  20; 6HR MAX TEMP:  25; 6HR PCP: TRACE;

EFFINGHAM      CLOUDY    28  24  83 W14G20    30.26S WCI  17
FLORA          CLOUDY    32  24  74 W14G24    30.26R WCI  22
6HR MIN TEMP:  24; 6HR MAX TEMP:  32;

GALESBURG      PTSUNNY   24  13  63 NW21G26   30.28S WCI  10
JACKSONVILLE   MIX PCPN  28  21  75 NW20G29   30.30S WCI  15
6HR MIN TEMP:  23; 6HR MAX TEMP:  28;

LACON          CLOUDY    24  12  61 NW15G23   30.25R WCI  11
6HR MIN TEMP:  21; 6HR MAX TEMP:  24;

LAWRENCEVILLE  CLOUDY    28  22  78 NW14      30.24S WCI  17
6HR MIN TEMP:  22; 6HR MAX TEMP:  29; 6HR PCP: TRACE;

LITCHFIELD     CLOUDY    27  21  77 NW17      30.28S WCI  14
$$


CITY           SKY/WX    TMP DP  RH WIND       PRES   REMARKS
LINCOLN        LGT SNOW  27  22  83 NW10G20   30.25S WCI  17
6HR MIN TEMP:  23; 6HR MAX TEMP:  27;

MACOMB         CLOUDY    24  17  73 N20       30.33R WCI  10
MATTOON        CLOUDY    25  19  78 NW18      30.22S WCI  11
6HR MIN TEMP:  17; 6HR MAX TEMP:  25;

MT CARMEL AP   CLOUDY    30  23  74 W14       30.23S WCI  20
OLNEY-NOBLE AP CLOUDY    30  25  80 NW13      30.25S WCI  20
PARIS          CLOUDY    26  20  79 W17       30.21F WCI  13
6HR MIN TEMP:  21; 6HR MAX TEMP:  26;

PEORIA         CLOUDY    25  13  60 NW17G26   30.27R WCI  12
6HR MIN TEMP:  22; 6HR MAX TEMP:  26; 6HR PCP: TRACE;

PONTIAC        CLOUDY    25  18  76 NW20G26   30.22R WCI  10
RANTOUL        LGT SNOW  27  22  80 W14G22    30.19S WCI  16
6HR MIN TEMP:  22; 6HR MAX TEMP:  27;

ROBINSON       CLOUDY    27  21  77 NW12G17   30.24S WCI  17
6HR MIN TEMP:  20; 6HR MAX TEMP:  28;

SPRINGFIELD    CLOUDY    26  20  77 NW17G25   30.28S WCI  13
6HR MIN TEMP:  20; 6HR MAX TEMP:  26;

TAYLORVILLE    CLOUDY    27  21  80 NW15      30.27S WCI  15
$$

...REGIONAL REPORTS...


CITY           SKY/WX    TMP DP  RH WIND       PRES   REMARKS
CHICAGO O`HARE PTSUNNY   21   8  57 NW18G25   30.15S WCI   6
KANKAKEE       MIX PCPN  23  14  68 NW14G21   30.18S WCI  11
MOLINE         MOSUNNY   25  11  55 W20G31    30.29S WCI  11
MOUNT STERLING CLOUDY    24  16  73 NW20G26   30.31R WCI   9
MOUNT VERNON   PTSUNNY   30  23  74 W7        30.27S WCI  23
PITTSFIELD     CLOUDY    26  19  75 NW14G23   30.33S WCI  14
QUINCY         CLOUDY    24  15  68 NW18      30.34R WCI  10
ROCKFORD       PTSUNNY   21   7  54 NW22G28   30.22S WCI   5
$$


CITY           SKY/WX    TMP DP  RH WIND       PRES   REMARKS
BURLINGTON     PTSUNNY   24  14  65 NW20G31   30.32R WCI  10
CEDAR RAPIDS   MOSUNNY   20  10  65 NW24G30   30.33R WCI   3
DES MOINES     MOSUNNY   20   3  48 N15       30.45R WCI   6
KIRKSVILLE     MOSUNNY   27  14  58 N18G25    30.39R WCI  14
OTTUMWA        PTSUNNY   22  12  65 NW28      30.39R WCI   4
ST LOUIS       CLOUDY    33  23  66 NW17      30.30F WCI  22
$$


CITY           SKY/WX    TMP DP  RH WIND       PRES   REMARKS
TERRE HAUTE    CLOUDY    26  18  71 NW15      30.21S WCI  14
EVANSVILLE     CLOUDY    31  23  72 W5        30.24F WCI  26
INDIANAPOLIS   FLURRIES  26  14  60 W17       30.14F WCI  13
LAFAYETTE      LGT SNOW  24  18  77 W14G23    30.15F WCI  12
MADISON        MOSUNNY   16   1  51 NW12G22   30.19R WCI   3
MILWAUKEE      PTSUNNY   19   2  47 NW16G29   30.14S WCI   4
$$





USA.gov is the U.S. government's official web portal to all federal, state and local government web resources and services.